Weather History for Minneapolis Crystal, MN

Change the Weather History Date:

Saturday, November 16, 2013

  Actual Average Record
Temperature  
Mean Temperature 44 °F -  
Max Temperature 50 °F 39 °F 64 °F (2001)
Min Temperature 39 °F 25 °F 9 °F (1997)
Degree Days  
Heating Degree Days 20    
Moisture  
Dew Point 42 °F    
Average Humidity 88    
Maximum Humidity 97    
Minimum Humidity 68    
Precipitation  
Precipitation 0.10 in - - ()
Sea Level Pressure  
Sea Level Pressure 29.37 in    
Wind  
Wind Speed 8 mph (SE)    
Max Wind Speed 13 mph    
Max Gust Speed 17 mph    
Visibility 4 miles    
Events Fog , Rain    
Averages and records for this station are not official NWS values.
T = Trace of Precipitation, MM = Missing Value Source: NWS Daily Summary

Daily Weather History Graph

Daily Weather History Graph

Search for Another Location

Airport:

Trip Planner

Search our weather history database for the weather conditions in past years. The results will help you decide how hot, cold, wet, or windy it might be!

Date:

Astronomy

Nov. 16, 2013 Rise Set
Actual Time 7:12 AM CST 4:43 PM CST
Civil Twilight 6:41 AM CST 5:14 PM CST
Nautical Twilight 6:05 AM CST 5:50 PM CST
Astronomical Twilight 5:30 AM CST 6:25 PM CST
Moon 4:20 PM CST (11/16) 6:07 AM CST (11/16)
Length of Visible Light 10h 33m
Length of Day
9h 30m
Waxing Gibbous, 99% of the Moon is Illuminated
Nov 16
Waxing Gibbous
Nov 17
Full
Nov 25
Last Quarter
Dec 2
New
Dec 9
First Quarter

Hourly Weather History & Observations

Time (CST) Temp. Windchill Dew Point Humidity Pressure Visibility Wind Dir Wind Speed Gust Speed Precip Events Conditions
12:53 AM 44.1 °F 39.0 °F 34.0 °F 68% 29.61 in 10.0 mi South 9.2 mph - N/A   Clear
1:53 AM 43.0 °F 36.4 °F 34.0 °F 71% 29.60 in 10.0 mi SE 12.7 mph 17.3 mph N/A   Clear
2:53 AM 42.1 °F 36.1 °F 34.0 °F 73% 29.58 in 10.0 mi SSE 10.4 mph - N/A   Mostly Cloudy
3:53 AM 39.9 °F 34.5 °F 34.0 °F 79% 29.57 in 10.0 mi SSE 8.1 mph - N/A   Clear
4:53 AM 41.0 °F 35.2 °F 36.0 °F 82% 29.55 in 10.0 mi SSE 9.2 mph - N/A   Clear
5:53 AM 42.1 °F 36.1 °F 37.0 °F 82% 29.52 in 10.0 mi SSE 10.4 mph - N/A   Clear
6:53 AM 42.1 °F 35.7 °F 37.0 °F 82% 29.50 in 9.0 mi SSE 11.5 mph - N/A   Clear
7:37 AM 42.8 °F 37.0 °F 37.4 °F 81% 29.49 in 7.0 mi SSE 10.4 mph - N/A   Mostly Cloudy
7:50 AM 42.8 °F 37.5 °F 37.4 °F 81% 29.49 in 7.0 mi SSE 9.2 mph - N/A   Overcast
7:53 AM 43.0 °F 37.7 °F 37.9 °F 82% 29.50 in 7.0 mi SE 9.2 mph - N/A   Overcast
8:53 AM 44.1 °F 38.6 °F 39.0 °F 82% 29.49 in 6.0 mi SSE 10.4 mph - N/A   Haze
9:46 AM 44.6 °F 38.8 °F 41.0 °F 87% 29.46 in 3.0 mi SSE 11.5 mph - N/A   Overcast
9:53 AM 45.0 °F 39.7 °F 41.0 °F 86% 29.47 in 3.0 mi SE 10.4 mph - N/A   Overcast
10:26 AM 46.4 °F 41.5 °F 42.8 °F 87% 29.46 in 2.5 mi SE 10.4 mph - N/A   Overcast
10:53 AM 46.0 °F 41.4 °F 43.0 °F 89% 29.45 in 2.5 mi SE 9.2 mph - N/A   Overcast
11:43 AM 46.4 °F 41.9 °F 42.8 °F 87% 29.41 in 1.5 mi ESE 9.2 mph - N/A   Overcast
11:53 AM 46.0 °F 41.9 °F 43.0 °F 89% 29.41 in 1.8 mi ESE 8.1 mph - N/A   Overcast
12:05 PM 46.4 °F 42.4 °F 42.8 °F 87% 29.39 in 2.0 mi ESE 8.1 mph - N/A   Overcast
12:15 PM 46.4 °F 42.9 °F 42.8 °F 87% 29.38 in 1.8 mi ESE 6.9 mph - N/A   Overcast
12:40 PM 46.4 °F 42.4 °F 42.8 °F 87% 29.37 in 1.2 mi ESE 8.1 mph - 0.00 in Rain Light Rain
12:53 PM 46.0 °F 42.5 °F 43.0 °F 89% 29.37 in 1.0 mi East 6.9 mph - 0.01 in Rain Light Rain
1:53 PM 45.0 °F 39.7 °F 43.0 °F 93% 29.33 in 1.5 mi ESE 10.4 mph - 0.05 in Rain Light Rain
2:10 PM 46.4 °F 42.4 °F 42.8 °F 87% 29.30 in 1.5 mi ESE 8.1 mph - 0.00 in Rain Light Rain
2:45 PM 46.4 °F 41.5 °F 44.6 °F 93% 29.28 in 2.5 mi ESE 10.4 mph - 0.01 in   Overcast
2:53 PM 46.0 °F 42.5 °F 44.1 °F 93% 29.29 in 2.5 mi ESE 6.9 mph - 0.01 in Rain Light Rain
3:53 PM 46.9 °F - 45.0 °F 93% 29.26 in 2.5 mi East 6.9 mph - 0.02 in Rain Light Rain
4:00 PM 46.4 °F 44.3 °F 44.6 °F 93% 29.25 in 6.0 mi ENE 4.6 mph - 0.01 in Rain Light Rain
4:53 PM 46.9 °F - 45.0 °F 93% 29.24 in 8.0 mi Calm Calm - 0.01 in   Overcast
5:53 PM 46.9 °F - 45.0 °F 93% 29.25 in 5.0 mi Calm Calm - N/A   Overcast
6:53 PM 46.9 °F - 45.0 °F 93% 29.26 in 3.0 mi Calm Calm - N/A   Overcast
7:04 PM 46.4 °F - 44.6 °F 93% 29.23 in 2.5 mi Calm Calm - N/A   Overcast
7:17 PM 46.4 °F - 44.6 °F 93% 29.25 in 1.0 mi Calm Calm - N/A   Overcast
7:24 PM 46.4 °F - 44.6 °F 93% 29.25 in 0.5 mi Calm Calm - N/A Fog Fog
7:33 PM 46.4 °F - 44.6 °F 93% 29.24 in 0.5 mi Calm Calm - N/A Fog Fog
7:44 PM 46.4 °F - 44.6 °F 93% 29.25 in 0.8 mi Calm Calm - N/A   Overcast
7:49 PM 46.4 °F - 44.6 °F 93% 29.26 in 1.8 mi Calm Calm - N/A   Overcast
7:53 PM 46.9 °F - 46.0 °F 97% 29.27 in 3.0 mi Calm Calm - N/A   Overcast
8:08 PM 48.2 °F - 46.4 °F 93% 29.27 in 4.0 mi SSW 5.8 mph - N/A   Overcast
8:25 PM 48.2 °F - 46.4 °F 93% 29.27 in 4.0 mi SSW 6.9 mph - N/A   Overcast
8:53 PM 50.0 °F - 46.9 °F 89% 29.29 in 6.0 mi SW 9.2 mph - N/A   Overcast
9:53 PM 46.9 °F - 44.1 °F 90% 29.30 in 6.0 mi SSW 6.9 mph - N/A   Clear
10:53 PM 45.0 °F 40.6 °F 42.1 °F 90% 29.31 in 5.0 mi South 8.1 mph - N/A   Clear
11:53 PM 44.1 °F 41.5 °F 41.0 °F 89% 29.32 in 6.0 mi South 4.6 mph - N/A   Clear